Tracking 19800 objects as of 24-Jul-2019
HD Live streaming from Space Station
objects crossing your sky now

LEMUR 2 ORZULAK

Track LEMUR 2 ORZULAK now!
10-day predictions
LEMUR 2 ORZULAK is classified as:


NORAD ID: 43731
Int'l Code: 2018-096N
Perigee: 476.8 km
Apogee: 504.4 km
Inclination: 97.5 °
Period: 94.3 minutes
Semi major axis: 6861 km
RCS: Unknown
Launch date: November 29, 2018
Source: United States (US)
Launch site: SRIHARIKOTA (SRI)
aabbcc
Your satellite tracking list
Your tracking list is empty




NASA's NSSDC Master Catalog

Two Line Element Set (TLE):
1 43731U 18096N   19203.67549314  .00001163  00000-0  45916-4 0  9996
2 43731  97.4592 273.8664 0020070 211.5261 148.4777 15.27448255 35930
Source of the keplerian elements: AFSPC